Showing default

TIROS 6, 397

Orbit data source: Space-Track

TIROS 6, 397 is a payload satellite owned by GSFC (US) in LEO that was launched on Tue, 18 Sep 1962 UTC via a THOR DELTA launch vehicle from the Air Force Eastern Test Range (AFETR). Payload-class satellites include a variety of spacecraft equipped with specific instruments for various scientific and technological missions. These include communications satellites like Starlink; space stations such as the ISS; scientific satellites like the Hubble; Earth observation satellites from companies like Planet Labs, Umbra, and HawkEye 360; GPS; miniature CubeSats for education and research; and military/defense satellites.

Loading next visibility...
Identifier
397, 1962-047A
Orbit
LEO
Country
Flag of USUS
Related business
Manufacturer
RCA/East Windsor
Mission
Non-operational spacecraft
Bus & Motor
TIROS, Unknown motor
Mass
127 kg wet, 127 kg dry
Launch date (UTC)
1962-09-18 (63 years ago)
Launch vehicle
THOR DELTA
Launch site
Air Force Eastern Test Range (AFETR)
Object type
Payload
Rocket body
Debris
Shape & HBR
Unknown
Radar Cross Section
Medium (>0.1 m² and <1 m²)

Expand to show TLE details & history
Last TLE update: 5 hours ago

TLE from 5 hours ago
0 TIROS 6
1   397U 62047A   26036.11988288  .00002095  00000-0  20767-3 0  9991
2   397  58.3030  54.5929 0009279  35.9541 324.2130 14.95609053392560
Epoch: 2026-02-05T02:52Z
TLE epoch observation values (Epoch: 2026-02-05T02:52:37.880Z)
Latitude
-0.00001°
Longitude
-123.84162°
Altitude
576.661 km
Speed
7.576 km/s
True Right ascension
03h 38m 22s
True Declination
0° 00' 00"
Sunlit
Object was in daylight at epoch
Visualization orbit readout
Latitude
Unknown
Longitude
Unknown
Altitude
Unknown
Speed
Unknown
Apparent Right ascension
Unknown
Apparent Declination
Unknown
Sunlit
N/A
Visualization observer readout
Local Sidereal Time
10:23:26
Azimuth
Unknown
Elevation
Unknown
Doppler factor
Unknown
Orbital elements
Apogee altitude
586.4 km
Perigee altitude
573.487 km
Semi-major axis
6,958.081 km
Eccentricity
0.00093
Inclination
58.303°
RAAN
54.5929°
Arg. of periapsis
35.9541°
True anomaly
324.15076°
Mean anomaly
324.213°
Eccentric anomaly
324.18189°
Mean motion
3.73946 °/min
Orbital period
96.27 mins
BSTAR
0.00020767
Loading maneuver chart data...
Computing Atmospheric mass density...
Loading historical data...
Loading historical data...
Loading historical data...
Loading historical data...
Loading historical data...
Loading historical data...
Loading historical data...

Documentation

Showing up to 5 results
|